DECAYED

IRIDIUM 33 DEB, 34107 (Decayed)

Orbit data source: Space-Track

IRIDIUM 33 DEB, 34107 was space debris in LEO originally from a launch on Sun, 14 Sep 1997 UTC launched from the Tyuratam Missile And Space Complex (TTMTR). The debris from Iridium 33, an American commercial communications satellite, has been tracked extensively since its accidental collision with the defunct Russian satellite Cosmos 2251 in 2009. This event, occurring at high speed in low Earth orbit (LEO), generated thousands of pieces of space debris, significantly increasing the risk of further collisions. The Iridium 33 debris cloud has impacted space traffic management and orbital debris mitigation strategies, making it a subject of ongoing study in space situational awareness.

Not visible in the next 10 days
Identifier
34107, 1997-051DS
Orbit
Decayed
Country
Flag of USUS
Related business
Manufacturer
Unknown
Mission
Decayed spacecraft
Bus & Motor
Unknown
Mass
Unknown
Launch date (UTC)
1997-09-14 (28 years ago)
Launch vehicle
Unknown
Launch site
Tyuratam Missile And Space Complex (TTMTR)
Object type
Payload
Rocket body
Debris
Shape & HBR
Unknown shape, 0.1 m
Radar Cross Section
Small (<0.1 m²)

Expand to show TLE details & history
Last TLE update: 1 year ago

TLE from 1 year ago
0 IRIDIUM 33 DEB
1 34107U 97051DS  25025.55717802  .24354841 -13483-5  93244-2 0  9996
2 34107  86.3563 128.4804 0018621 330.3387  29.6854 16.23720897845039
Epoch: 2025-01-25T13:22Z
TLE epoch observation values (Epoch: 2025-01-25T13:22:20.180Z)
Latitude
-0.00007°
Longitude
162.79203°
Altitude
202.128 km
Speed
7.791 km/s
True Right ascension
08h 33m 55s
True Declination
0° 00' 00"
Sunlit
Object was in full shadow at epoch
Visualization orbit readout
Latitude
Unknown
Longitude
Unknown
Altitude
Unknown
Speed
Unknown
Apparent Right ascension
Unknown
Apparent Declination
Unknown
Sunlit
N/A
Visualization observer readout
Local Sidereal Time
03:12:49
Azimuth
Unknown
Elevation
Unknown
Doppler factor
Unknown
Orbital elements
Apogee altitude
218.432 km
Perigee altitude
193.911 km
Semi-major axis
6,584.309 km
Eccentricity
0.00186
Inclination
86.3563°
RAAN
128.4804°
Arg. of periapsis
330.3387°
True anomaly
29.79129°
Mean anomaly
29.6854°
Eccentric anomaly
29.73832°
Mean motion
4.06236 °/min
Orbital period
88.62 mins
BSTAR
0.0093244
Loading maneuver chart data...
Computing Atmospheric mass density...

Documentation

Showing up to 5 results
|